Tracking 31027 objects as of 19-Jul-2025
HD Live streaming from Space Station
objects crossing your sky now

STARLINK-30322

Track STARLINK-30322 now!
10-day predictions
STARLINK-30322 is classified as:


NORAD ID: 57670
Int'l Code: 2023-124H
Perigee: 481.6 km
Apogee: 483.2 km
Inclination: 53.2 °
Period: 94.1 minutes
Semi major axis: 6853 km
RCS: Unknown
Launch date: August 22, 2023
Source: United States (US)
Launch site: AIR FORCE WESTERN TEST RANGE (AFWTR)
Your satellite tracking list
NOAA 16 DEB
Track 1 satellite(s)




NASA's NSSDC Master Catalog

Two Line Element Set (TLE):
1 57670U 23124H   25199.48454360 -.00000231  00000-0  43370-5 0  9996
2 57670  53.1588 214.9307 0001153  87.1158 272.9974 15.30187664107338
Source of the keplerian elements: AFSPC